RYR5309 EGPH-EPRZ

Flight info

Callsign RYR5309
Flight time 2h 15m
Altitude 35000
Route TLA Y96 OTBUN DCT RENEQ DCT HLZ DCT BOLBO DCT LASIS DCT ETITI
Aircraft B738/M-SDE2E3FGHIRWXY/LB1

Departure

Time 2026-05-04 18:58
Airport Edinburgh Airport (EGPH)

Arrival

Time 2026-05-04 21:13
Airport Rzeszów-Jasionka Airport (EPRZ)
Time Latitude Longitude Altitude Speed Heading
2026-05-04 18:21 55.94658 -3.36619 105 ft 0 kts 89°
2026-05-04 18:47 55.94658 -3.36657 105 ft 4 kts 87°
2026-05-04 18:47 55.94655 -3.36704 104 ft 4 kts 70°
2026-05-04 18:48 55.94643 -3.36734 104 ft 3 kts
2026-05-04 18:48 55.94640 -3.36735 104 ft 1 kts 359°
2026-05-04 18:50 55.94667 -3.36735 105 ft 8 kts 359°
2026-05-04 18:50 55.94725 -3.36737 106 ft 8 kts 358°
2026-05-04 18:50 55.94777 -3.36770 106 ft 8 kts 345°
2026-05-04 18:50 55.94852 -3.36780 108 ft 13 kts 356°
2026-05-04 18:51 55.94929 -3.36822 109 ft 6 kts
2026-05-04 18:51 55.94968 -3.36767 111 ft 11 kts 54°
2026-05-04 18:51 55.95023 -3.36606 110 ft 17 kts 59°
2026-05-04 18:51 55.95082 -3.36433 111 ft 16 kts 59°
2026-05-04 18:52 55.95143 -3.36253 108 ft 17 kts 59°
2026-05-04 18:52 55.95220 -3.36026 104 ft 26 kts 59°
2026-05-04 18:52 55.95318 -3.35734 106 ft 27 kts 59°
2026-05-04 18:52 55.95414 -3.35454 109 ft 25 kts 55°
2026-05-04 18:53 55.95485 -3.35428 107 ft 0 kts 335°
2026-05-04 18:53 55.95486 -3.35428 107 ft 1 kts 335°
2026-05-04 18:53 55.95497 -3.35439 106 ft 0 kts 332°
2026-05-04 18:56 55.95552 -3.35508 107 ft 18 kts 308°
2026-05-04 18:56 55.95544 -3.35639 108 ft 0 kts 239°
2026-05-04 18:57 55.95445 -3.35933 105 ft 72 kts 239°
2026-05-04 18:57 55.95038 -3.37140 112 ft 152 kts 239°
2026-05-04 18:57 55.94390 -3.39004 556 ft 192 kts 239°
2026-05-04 18:58 55.93635 -3.40948 1736 ft 197 kts 238°
2026-05-04 18:58 55.92846 -3.43107 2468 ft 217 kts 241°
2026-05-04 18:58 55.91864 -3.45308 3213 ft 242 kts 218°
2026-05-04 18:58 55.90188 -3.46267 4007 ft 271 kts 185°
2026-05-04 18:59 55.88219 -3.46267 4862 ft 295 kts 181°
2026-05-04 18:59 55.86087 -3.46217 5681 ft 317 kts 182°
2026-05-04 18:59 55.83804 -3.46199 6513 ft 338 kts 182°
2026-05-04 18:59 55.81387 -3.46217 7275 ft 357 kts 182°
2026-05-04 19:00 55.78845 -3.46263 8058 ft 373 kts 183°
2026-05-04 19:00 55.76200 -3.46328 8850 ft 387 kts 183°
2026-05-04 19:00 55.73486 -3.46402 9919 ft 391 kts 183°
2026-05-04 19:00 55.70751 -3.46344 10926 ft 396 kts 177°
2026-05-04 19:01 55.68046 -3.45345 11788 ft 399 kts 165°
2026-05-04 19:01 55.65411 -3.43817 12565 ft 398 kts 164°
2026-05-04 19:01 55.62782 -3.42300 13339 ft 396 kts 164°
2026-05-04 19:01 55.60159 -3.40834 14102 ft 394 kts 165°
2026-05-04 19:02 55.57538 -3.39407 14823 ft 393 kts 165°
2026-05-04 19:02 55.54926 -3.38000 15565 ft 392 kts 165°
2026-05-04 19:02 55.52420 -3.36115 16269 ft 395 kts 148°
2026-05-04 19:02 55.50436 -3.32824 16931 ft 400 kts 127°
2026-05-04 19:03 55.49160 -3.28470 17588 ft 402 kts 107°
2026-05-04 19:03 55.48562 -3.23660 18293 ft 402 kts 99°
2026-05-04 19:03 55.48091 -3.18793 18877 ft 403 kts 99°
2026-05-04 19:03 55.47616 -3.13900 19344 ft 407 kts 99°
2026-05-04 19:04 55.47108 -3.08958 19833 ft 411 kts 101°
2026-05-04 19:04 55.46578 -3.03991 20332 ft 414 kts 101°
2026-05-04 19:04 55.45817 -2.99080 20820 ft 416 kts 111°
2026-05-04 19:04 55.44587 -2.94461 21343 ft 417 kts 120°
2026-05-04 19:05 55.43149 -2.90021 21864 ft 418 kts 121°
2026-05-04 19:05 55.41697 -2.85572 22404 ft 420 kts 121°
2026-05-04 19:05 55.40248 -2.81092 22934 ft 421 kts 121°
2026-05-04 19:05 55.38807 -2.76583 23411 ft 424 kts 121°
2026-05-04 19:06 55.37359 -2.72038 23783 ft 428 kts 121°
2026-05-04 19:06 55.35897 -2.67451 24131 ft 431 kts 121°
2026-05-04 19:06 55.34416 -2.62837 24491 ft 434 kts 121°
2026-05-04 19:06 55.32944 -2.58274 24841 ft 437 kts 121°
2026-05-04 19:07 55.31439 -2.53614 25205 ft 439 kts 121°
2026-05-04 19:07 55.29926 -2.48939 25565 ft 441 kts 121°
2026-05-04 19:07 55.28487 -2.44157 25850 ft 447 kts 114°
2026-05-04 19:07 55.27455 -2.38978 26100 ft 452 kts 104°
2026-05-04 19:08 55.26769 -2.33577 26374 ft 456 kts 102°
2026-05-04 19:08 55.26114 -2.28115 26630 ft 460 kts 102°
2026-05-04 19:08 55.25458 -2.22613 26893 ft 463 kts 102°
2026-05-04 19:08 55.24789 -2.17075 27154 ft 466 kts 102°
2026-05-04 19:09 55.24338 -2.13390 27336 ft 468 kts 102°
2026-05-04 19:09 55.23644 -2.07797 27605 ft 471 kts 103°
2026-05-04 19:09 55.22938 -2.02182 27869 ft 473 kts 103°
2026-05-04 19:09 55.22220 -1.96533 28139 ft 475 kts 103°
2026-05-04 19:10 55.21497 -1.90871 28418 ft 477 kts 103°
2026-05-04 19:10 55.21014 -1.87112 28587 ft 478 kts 103°
2026-05-04 19:10 55.20030 -1.79485 28959 ft 480 kts 103°
2026-05-04 19:10 55.19291 -1.73780 29238 ft 482 kts 103°
2026-05-04 19:11 55.18547 -1.68059 29520 ft 483 kts 103°
2026-05-04 19:11 55.17798 -1.62325 29805 ft 484 kts 103°
2026-05-04 19:11 55.17046 -1.56582 30083 ft 484 kts 103°
2026-05-04 19:11 55.16292 -1.50845 30330 ft 485 kts 103°
2026-05-04 19:12 55.15532 -1.45094 30572 ft 485 kts 103°
2026-05-04 19:12 55.14004 -1.33597 31064 ft 485 kts 103°
2026-05-04 19:12 55.13237 -1.27855 31312 ft 485 kts 103°
2026-05-04 19:13 55.12469 -1.22128 31560 ft 484 kts 103°
2026-05-04 19:13 55.11708 -1.16475 31802 ft 484 kts 103°
2026-05-04 19:13 55.10935 -1.10763 32058 ft 483 kts 103°
2026-05-04 19:13 55.10161 -1.05053 32316 ft 482 kts 103°
2026-05-04 19:14 55.09386 -0.99363 32580 ft 482 kts 103°
2026-05-04 19:14 55.08607 -0.93671 32848 ft 481 kts 103°
2026-05-04 19:14 55.07828 -0.87997 33107 ft 480 kts 104°
2026-05-04 19:14 55.07048 -0.82331 33376 ft 479 kts 104°
2026-05-04 19:15 55.06268 -0.76693 33645 ft 478 kts 104°
2026-05-04 19:15 55.05485 -0.71054 33919 ft 477 kts 104°
2026-05-04 19:15 55.04702 -0.65428 34171 ft 476 kts 104°
2026-05-04 19:15 55.03918 -0.59827 34407 ft 475 kts 104°
2026-05-04 19:16 55.03133 -0.54234 34644 ft 474 kts 104°
2026-05-04 19:16 55.02347 -0.48650 34880 ft 473 kts 104°
2026-05-04 19:16 55.01558 -0.43073 34989 ft 476 kts 104°
2026-05-04 19:17 54.99964 -0.31860 34999 ft 483 kts 104°
2026-05-04 19:17 54.98331 -0.20457 34993 ft 486 kts 104°
2026-05-04 19:18 54.96688 -0.09061 34985 ft 484 kts 104°
2026-05-04 19:18 54.95040 0.02279 34993 ft 483 kts 104°
2026-05-04 19:19 54.93382 0.13604 34997 ft 483 kts 104°
2026-05-04 19:19 54.91715 0.24917 34993 ft 483 kts 104°
2026-05-04 19:20 54.90036 0.36228 35003 ft 483 kts 104°
2026-05-04 19:20 54.88348 0.47518 35001 ft 482 kts 104°
2026-05-04 19:21 54.86654 0.58769 35002 ft 482 kts 104°
2026-05-04 19:21 54.84958 0.69957 35005 ft 481 kts 105°
2026-05-04 19:22 54.83244 0.81182 35005 ft 481 kts 105°
2026-05-04 19:22 54.81522 0.92385 35008 ft 480 kts 105°
2026-05-04 19:23 54.79794 1.03554 35007 ft 479 kts 105°
2026-05-04 19:23 54.78054 1.14722 35011 ft 478 kts 105°
2026-05-04 19:24 54.76311 1.25834 35011 ft 478 kts 105°
2026-05-04 19:24 54.74568 1.36871 35013 ft 477 kts 105°
2026-05-04 19:25 54.72807 1.47949 35015 ft 477 kts 105°
2026-05-04 19:25 54.71039 1.59005 35017 ft 477 kts 105°
2026-05-04 19:26 54.69259 1.70056 35017 ft 476 kts 105°
2026-05-04 19:26 54.67471 1.81084 35018 ft 476 kts 105°
2026-05-04 19:27 54.65674 1.92099 35020 ft 476 kts 105°
2026-05-04 19:27 54.63881 2.03022 35020 ft 476 kts 106°
2026-05-04 19:28 54.62066 2.14003 35021 ft 475 kts 106°
2026-05-04 19:28 54.60244 2.24962 35026 ft 475 kts 106°
2026-05-04 19:29 54.58412 2.35904 35023 ft 475 kts 106°
2026-05-04 19:29 54.56574 2.46822 35025 ft 475 kts 106°
2026-05-04 19:30 54.54722 2.57751 35023 ft 474 kts 106°
2026-05-04 19:30 54.52863 2.68653 35024 ft 474 kts 106°
2026-05-04 19:31 54.50997 2.79533 35027 ft 474 kts 107°
2026-05-04 19:31 54.49131 2.90338 35029 ft 474 kts 107°
2026-05-04 19:32 54.47246 3.01196 35025 ft 473 kts 107°
2026-05-04 19:32 54.45352 3.12033 35028 ft 473 kts 107°
2026-05-04 19:33 54.43450 3.22857 35025 ft 473 kts 107°
2026-05-04 19:33 54.41536 3.33689 35025 ft 474 kts 107°
2026-05-04 19:34 54.39613 3.44499 35029 ft 474 kts 107°
2026-05-04 19:34 54.37676 3.55317 35029 ft 474 kts 107°
2026-05-04 19:35 54.35729 3.66127 35031 ft 474 kts 107°
2026-05-04 19:35 54.33785 3.76865 35032 ft 474 kts 108°
2026-05-04 19:36 54.31819 3.87664 35029 ft 475 kts 108°
2026-05-04 19:36 54.29841 3.98459 35028 ft 475 kts 108°
2026-05-04 19:37 54.27854 4.09248 35026 ft 476 kts 108°
2026-05-04 19:37 54.25853 4.20051 35024 ft 476 kts 108°
2026-05-04 19:38 54.23830 4.30850 35024 ft 477 kts 109°
2026-05-04 19:38 54.21639 4.41558 35020 ft 477 kts 110°
2026-05-04 19:39 54.19380 4.52237 35021 ft 478 kts 111°
2026-05-04 19:39 54.17119 4.62945 35022 ft 479 kts 111°
2026-05-04 19:40 54.14862 4.73661 35022 ft 481 kts 111°
2026-05-04 19:40 54.12596 4.84396 35021 ft 482 kts 111°
2026-05-04 19:41 54.10316 4.95146 35019 ft 482 kts 111°
2026-05-04 19:41 54.08035 5.05840 35019 ft 483 kts 111°
2026-05-04 19:42 54.05728 5.16601 35018 ft 484 kts 112°
2026-05-04 19:42 54.03407 5.27366 35014 ft 485 kts 112°
2026-05-04 19:43 54.01072 5.38141 35015 ft 486 kts 112°
2026-05-04 19:43 53.98726 5.48910 35016 ft 486 kts 112°
2026-05-04 19:44 53.96367 5.59682 35012 ft 487 kts 112°
2026-05-04 19:44 53.93992 5.70466 35008 ft 488 kts 113°
2026-05-04 19:45 53.91604 5.81260 35014 ft 488 kts 113°
2026-05-04 19:45 53.89206 5.92039 35008 ft 489 kts 113°
2026-05-04 19:46 53.86796 6.02818 35001 ft 490 kts 113°
2026-05-04 19:46 53.84367 6.13625 34999 ft 490 kts 114°
2026-05-04 19:47 53.81930 6.24414 35001 ft 491 kts 114°
2026-05-04 19:47 53.79476 6.35225 34998 ft 492 kts 114°
2026-05-04 19:48 53.77008 6.46036 34995 ft 493 kts 114°
2026-05-04 19:48 53.74546 6.56764 34998 ft 493 kts 114°
2026-05-04 19:49 53.72057 6.67561 34996 ft 494 kts 114°
2026-05-04 19:49 53.69551 6.78376 34993 ft 494 kts 114°
2026-05-04 19:50 53.67032 6.89190 34991 ft 495 kts 115°
2026-05-04 19:50 53.64499 7.00009 34991 ft 496 kts 115°
2026-05-04 19:51 53.62117 7.10133 34997 ft 496 kts 115°
2026-05-04 19:51 53.59994 7.19116 34994 ft 497 kts 115°
2026-05-04 19:52 53.56995 7.31746 34993 ft 497 kts 115°
2026-05-04 19:52 53.54415 7.42551 34993 ft 498 kts 115°
2026-05-04 19:53 53.51822 7.53358 34993 ft 499 kts 115°
2026-05-04 19:53 53.49231 7.64100 34990 ft 499 kts 115°
2026-05-04 19:54 53.47040 7.73143 34994 ft 499 kts 115°
2026-05-04 19:54 53.44414 7.83936 34994 ft 500 kts 116°
2026-05-04 19:55 53.41775 7.94725 34992 ft 500 kts 116°
2026-05-04 19:55 53.39132 8.05480 34987 ft 499 kts 116°
2026-05-04 19:56 53.36499 8.16144 34988 ft 498 kts 116°
2026-05-04 19:56 53.33840 8.26858 34984 ft 498 kts 116°
2026-05-04 19:57 53.31175 8.37542 34984 ft 497 kts 116°
2026-05-04 19:57 53.28498 8.48227 34977 ft 497 kts 117°
2026-05-04 19:58 53.25815 8.58881 34971 ft 497 kts 117°
2026-05-04 19:58 53.23125 8.69515 34967 ft 497 kts 117°
2026-05-04 19:59 53.20415 8.80175 34968 ft 497 kts 117°
2026-05-04 19:59 53.17710 8.90768 34965 ft 497 kts 117°
2026-05-04 20:00 53.14990 9.01362 34969 ft 497 kts 117°
2026-05-04 20:00 53.12259 9.11954 34965 ft 497 kts 117°
2026-05-04 20:01 53.09520 9.22527 34960 ft 497 kts 117°
2026-05-04 20:01 53.06769 9.33094 34955 ft 497 kts 118°
2026-05-04 20:02 53.04012 9.43638 34947 ft 497 kts 118°
2026-05-04 20:02 53.01248 9.54157 34940 ft 497 kts 118°
2026-05-04 20:03 52.98469 9.64688 34941 ft 497 kts 118°
2026-05-04 20:03 52.95688 9.75174 34937 ft 497 kts 118°
2026-05-04 20:04 52.92898 9.85648 34935 ft 497 kts 118°
2026-05-04 20:04 52.90118 9.96036 34939 ft 496 kts 118°
2026-05-04 20:05 52.87308 10.06489 34944 ft 496 kts 118°
2026-05-04 20:05 52.84487 10.16937 34935 ft 496 kts 118°
2026-05-04 20:06 52.81660 10.27356 34939 ft 496 kts 118°
2026-05-04 20:06 52.78829 10.37745 34939 ft 496 kts 118°
2026-05-04 20:07 52.76007 10.48055 34939 ft 496 kts 118°
2026-05-04 20:07 52.73158 10.58423 34939 ft 495 kts 118°
2026-05-04 20:08 52.70299 10.68770 34936 ft 495 kts 118°
2026-05-04 20:08 52.67433 10.79098 34933 ft 495 kts 118°
2026-05-04 20:09 52.64559 10.89410 34933 ft 495 kts 118°
2026-05-04 20:09 52.61675 10.99716 34933 ft 495 kts 118°
2026-05-04 20:10 52.58784 11.09998 34934 ft 495 kts 118°
2026-05-04 20:10 52.55886 11.20260 34932 ft 495 kts 118°
2026-05-04 20:11 52.52979 11.30511 34929 ft 495 kts 118°
2026-05-04 20:11 52.50064 11.40744 34928 ft 494 kts 119°
2026-05-04 20:12 52.47144 11.50951 34927 ft 494 kts 119°
2026-05-04 20:12 52.44230 11.61092 34927 ft 494 kts 119°
2026-05-04 20:13 52.41291 11.71278 34927 ft 494 kts 119°
2026-05-04 20:13 52.38340 11.81461 34922 ft 494 kts 119°
2026-05-04 20:14 52.35387 11.91606 34925 ft 494 kts 119°
2026-05-04 20:14 52.32424 12.01741 34922 ft 494 kts 119°
2026-05-04 20:15 52.29471 12.11801 34929 ft 494 kts 119°
2026-05-04 20:15 52.26486 12.21928 34924 ft 494 kts 119°
2026-05-04 20:16 52.23499 12.32016 34919 ft 494 kts 119°
2026-05-04 20:16 52.20498 12.42111 34922 ft 494 kts 119°
2026-05-04 20:17 52.17492 12.52180 34914 ft 494 kts 119°
2026-05-04 20:17 52.14471 12.62257 34909 ft 494 kts 119°
2026-05-04 20:18 52.11442 12.72315 34922 ft 494 kts 119°
2026-05-04 20:18 52.08429 12.82283 34909 ft 494 kts 119°
2026-05-04 20:19 52.05388 12.92298 34918 ft 494 kts 120°
2026-05-04 20:19 52.02342 13.02292 34911 ft 494 kts 120°
2026-05-04 20:20 51.99286 13.12275 34910 ft 493 kts 120°
2026-05-04 20:20 51.96222 13.22244 34910 ft 493 kts 120°
2026-05-04 20:21 51.93155 13.32183 34910 ft 493 kts 120°
2026-05-04 20:21 51.88560 13.46995 34912 ft 492 kts 120°
2026-05-04 20:22 51.85480 13.56873 34914 ft 491 kts 120°
2026-05-04 20:22 51.82398 13.66717 34921 ft 490 kts 120°
2026-05-04 20:23 51.79312 13.76536 34921 ft 490 kts 120°
2026-05-04 20:23 51.76217 13.86343 34926 ft 490 kts 120°
2026-05-04 20:24 51.73115 13.96132 34927 ft 489 kts 120°
2026-05-04 20:24 51.70004 14.05914 34923 ft 489 kts 120°
2026-05-04 20:25 51.66889 14.15668 34930 ft 489 kts 120°
2026-05-04 20:25 51.63784 14.25352 34924 ft 490 kts 120°
2026-05-04 20:26 51.60650 14.35086 34926 ft 489 kts 120°
2026-05-04 20:26 51.57512 14.44798 34925 ft 490 kts 120°
2026-05-04 20:27 51.54362 14.54508 34925 ft 490 kts 120°
2026-05-04 20:27 51.51202 14.64212 34928 ft 489 kts 120°
2026-05-04 20:28 51.48037 14.73894 34924 ft 489 kts 120°
2026-05-04 20:28 51.44871 14.83544 34923 ft 489 kts 120°
2026-05-04 20:29 51.41727 14.93130 34922 ft 489 kts 118°
2026-05-04 20:29 51.39591 15.03493 34927 ft 493 kts 103°
2026-05-04 20:30 51.38291 15.14264 34926 ft 493 kts 103°
2026-05-04 20:30 51.36892 15.24997 34919 ft 493 kts 104°
2026-05-04 20:31 51.35429 15.35721 34917 ft 493 kts 104°
2026-05-04 20:31 51.33959 15.46436 34916 ft 493 kts 104°
2026-05-04 20:32 51.32498 15.57077 34916 ft 493 kts 104°
2026-05-04 20:32 51.31023 15.67773 34914 ft 493 kts 104°
2026-05-04 20:33 51.29535 15.78490 34913 ft 493 kts 104°
2026-05-04 20:33 51.28039 15.89185 34915 ft 493 kts 104°
2026-05-04 20:34 51.26531 15.99886 34910 ft 494 kts 104°
2026-05-04 20:34 51.25270 16.08778 34909 ft 494 kts 104°
2026-05-04 20:35 51.23495 16.21203 34916 ft 494 kts 104°
2026-05-04 20:35 51.22216 16.30100 34906 ft 494 kts 104°
2026-05-04 20:36 51.20668 16.40792 34904 ft 494 kts 104°
2026-05-04 20:36 51.19111 16.51474 34911 ft 494 kts 104°
2026-05-04 20:37 51.17545 16.62143 34912 ft 494 kts 104°
2026-05-04 20:37 51.15970 16.72804 34906 ft 494 kts 104°
2026-05-04 20:38 51.14385 16.83457 34907 ft 494 kts 104°
2026-05-04 20:38 51.12801 16.94032 34912 ft 494 kts 104°
2026-05-04 20:39 51.11197 17.04663 34916 ft 494 kts 104°
2026-05-04 20:39 51.09584 17.15291 34909 ft 494 kts 104°
2026-05-04 20:40 51.07960 17.25914 34909 ft 494 kts 104°
2026-05-04 20:40 51.06329 17.36516 34911 ft 493 kts 104°
2026-05-04 20:41 51.04689 17.47109 34910 ft 493 kts 104°
2026-05-04 20:41 51.03041 17.57680 34905 ft 493 kts 105°
2026-05-04 20:42 51.01395 17.68173 34914 ft 492 kts 105°
2026-05-04 20:42 50.99730 17.78720 34910 ft 492 kts 105°
2026-05-04 20:43 50.98056 17.89254 34917 ft 492 kts 105°
2026-05-04 20:43 50.96373 17.99780 34916 ft 491 kts 105°
2026-05-04 20:44 50.94684 18.10274 34916 ft 491 kts 105°
2026-05-04 20:44 50.92987 18.20751 34916 ft 490 kts 105°
2026-05-04 20:45 50.91294 18.31142 34922 ft 490 kts 105°
2026-05-04 20:45 50.89580 18.41591 34925 ft 490 kts 105°
2026-05-04 20:46 50.87860 18.52017 34926 ft 489 kts 105°
2026-05-04 20:46 50.86129 18.62445 34929 ft 489 kts 105°
2026-05-04 20:47 50.84391 18.72856 34926 ft 489 kts 105°
2026-05-04 20:47 50.82644 18.83253 34932 ft 488 kts 105°
2026-05-04 20:48 50.80885 18.93660 34594 ft 494 kts 105°
2026-05-04 20:48 50.79993 18.98909 34185 ft 493 kts 105°
2026-05-04 20:48 50.79104 19.04128 33697 ft 490 kts 105°
2026-05-04 20:49 50.78217 19.09318 33186 ft 489 kts 105°
2026-05-04 20:49 50.77337 19.14459 32726 ft 491 kts 105°
2026-05-04 20:49 50.76441 19.19669 32259 ft 493 kts 105°
2026-05-04 20:49 50.75539 19.24902 31794 ft 494 kts 105°
2026-05-04 20:50 50.74635 19.30131 31338 ft 494 kts 105°
2026-05-04 20:50 50.73729 19.35359 30888 ft 495 kts 105°
2026-05-04 20:50 50.72817 19.40601 30447 ft 495 kts 105°
2026-05-04 20:50 50.71903 19.45843 30004 ft 495 kts 105°
2026-05-04 20:51 50.70986 19.51087 29505 ft 496 kts 105°
2026-05-04 20:51 50.70066 19.56332 28997 ft 496 kts 105°
2026-05-04 20:51 50.69143 19.61575 28508 ft 497 kts 106°
2026-05-04 20:51 50.68828 19.63359 28344 ft 497 kts 106°
2026-05-04 20:52 50.68164 19.67125 27996 ft 497 kts 106°
2026-05-04 20:52 50.67233 19.72384 27525 ft 498 kts 105°
2026-05-04 20:52 50.66303 19.77640 27051 ft 498 kts 105°
2026-05-04 20:52 50.65369 19.82904 26598 ft 499 kts 106°
2026-05-04 20:53 50.64429 19.88170 26151 ft 500 kts 106°
2026-05-04 20:53 50.63484 19.93444 25704 ft 501 kts 106°
2026-05-04 20:53 50.62533 19.98732 25263 ft 501 kts 106°
2026-05-04 20:53 50.61586 20.03977 24826 ft 495 kts 106°
2026-05-04 20:54 50.60644 20.09179 24402 ft 492 kts 106°
2026-05-04 20:54 50.59709 20.14333 23981 ft 489 kts 106°
2026-05-04 20:54 50.58775 20.19468 23566 ft 487 kts 106°
2026-05-04 20:54 50.57844 20.24577 23078 ft 484 kts 107°
2026-05-04 20:55 50.56919 20.29646 22595 ft 481 kts 107°
2026-05-04 20:55 50.55997 20.34676 22106 ft 476 kts 107°
2026-05-04 20:55 50.55093 20.39600 21640 ft 473 kts 107°
2026-05-04 20:55 50.54181 20.44553 21172 ft 471 kts 107°
2026-05-04 20:56 50.53270 20.49485 20711 ft 468 kts 107°
2026-05-04 20:56 50.52361 20.54395 20268 ft 466 kts 108°
2026-05-04 20:56 50.51455 20.59273 19817 ft 462 kts 108°
2026-05-04 20:56 50.50558 20.64092 19379 ft 458 kts 108°
2026-05-04 20:57 50.49664 20.68880 18947 ft 456 kts 108°
2026-05-04 20:57 50.48771 20.73654 18514 ft 454 kts 108°
2026-05-04 20:57 50.47882 20.78391 18076 ft 452 kts 108°
2026-05-04 20:57 50.46995 20.83107 17589 ft 449 kts 108°
2026-05-04 20:58 50.46115 20.87777 17117 ft 444 kts 108°
2026-05-04 20:58 50.45239 20.92409 16653 ft 442 kts 108°
2026-05-04 20:58 50.44365 20.97023 16192 ft 440 kts 108°
2026-05-04 20:58 50.43494 21.01608 15734 ft 438 kts 108°
2026-05-04 20:59 50.42624 21.06181 15287 ft 436 kts 108°
2026-05-04 20:59 50.41757 21.10728 14848 ft 433 kts 108°
2026-05-04 20:59 50.40898 21.15226 14414 ft 429 kts 108°
2026-05-04 20:59 50.40042 21.19695 13986 ft 427 kts 108°
2026-05-04 21:00 50.39149 21.24112 13535 ft 424 kts 111°
2026-05-04 21:00 50.38067 21.28389 13065 ft 421 kts 115°
2026-05-04 21:00 50.36898 21.32584 12598 ft 419 kts 116°
2026-05-04 21:00 50.35724 21.36742 12135 ft 416 kts 115°
2026-05-04 21:01 50.34590 21.40817 11693 ft 412 kts 115°
2026-05-04 21:01 50.33462 21.44938 11242 ft 411 kts 115°
2026-05-04 21:01 50.32350 21.49052 10806 ft 410 kts 114°
2026-05-04 21:01 50.31246 21.53155 10382 ft 409 kts 114°
2026-05-04 21:02 50.30143 21.57244 10027 ft 407 kts 114°
2026-05-04 21:02 50.29033 21.61319 9974 ft 407 kts 116°
2026-05-04 21:02 50.27682 21.65183 9962 ft 403 kts 123°
2026-05-04 21:02 50.26137 21.68839 9961 ft 403 kts 126°
2026-05-04 21:03 50.24558 21.72471 9949 ft 403 kts 125°
2026-05-04 21:03 50.23017 21.76119 9948 ft 403 kts 124°
2026-05-04 21:03 50.21499 21.79800 9959 ft 402 kts 124°
2026-05-04 21:03 50.20100 21.83495 9934 ft 395 kts 115°
2026-05-04 21:04 50.19457 21.87559 9965 ft 377 kts 96°
2026-05-04 21:04 50.19363 21.91557 9777 ft 364 kts 91°
2026-05-04 21:04 50.19346 21.95486 9379 ft 359 kts 91°
2026-05-04 21:04 50.19325 21.99355 8976 ft 352 kts 91°
2026-05-04 21:05 50.19290 22.03115 8457 ft 342 kts 91°
2026-05-04 21:05 50.19246 22.06745 7999 ft 326 kts 92°
2026-05-04 21:05 50.19202 22.10198 7499 ft 311 kts 91°
2026-05-04 21:05 50.19155 22.13503 7003 ft 299 kts 92°
2026-05-04 21:06 50.19110 22.16690 6525 ft 288 kts 91°
2026-05-04 21:06 50.19059 22.19760 6053 ft 280 kts 92°
2026-05-04 21:06 50.19005 22.22770 5569 ft 275 kts 92°
2026-05-04 21:06 50.18950 22.25726 5067 ft 271 kts 92°
2026-05-04 21:07 50.18748 22.28618 4543 ft 265 kts 109°
2026-05-04 21:07 50.17807 22.30968 4031 ft 252 kts 139°
2026-05-04 21:07 50.16350 22.32303 3605 ft 238 kts 165°
2026-05-04 21:07 50.14788 22.32732 3503 ft 219 kts 181°
2026-05-04 21:08 50.13319 22.32712 3469 ft 207 kts 186°
2026-05-04 21:08 50.11938 22.32232 3451 ft 202 kts 212°
2026-05-04 21:08 50.10979 22.30750 3463 ft 198 kts 241°
2026-05-04 21:08 50.10639 22.28661 3472 ft 197 kts 265°
2026-05-04 21:09 50.10634 22.26616 3447 ft 183 kts 269°
2026-05-04 21:09 50.10693 22.24673 3194 ft 177 kts 270°
2026-05-04 21:09 50.10737 22.22867 2958 ft 159 kts 269°
2026-05-04 21:09 50.10761 22.21252 2777 ft 139 kts 268°
2026-05-04 21:10 50.10776 22.19830 2592 ft 127 kts 266°
2026-05-04 21:10 50.10792 22.18466 2437 ft 126 kts 265°
2026-05-04 21:10 50.10808 22.17106 2274 ft 125 kts 266°
2026-05-04 21:10 50.10824 22.15760 2106 ft 124 kts 264°
2026-05-04 21:11 50.10832 22.14872 2009 ft 124 kts 265°
2026-05-04 21:11 50.10851 22.13480 1832 ft 124 kts 264°
2026-05-04 21:11 50.10865 22.12119 1663 ft 133 kts 264°
2026-05-04 21:11 50.10864 22.10675 1527 ft 135 kts 268°
2026-05-04 21:12 50.10868 22.10378 1500 ft 135 kts 267°
2026-05-04 21:12 50.10902 22.08522 1260 ft 139 kts 268°
2026-05-04 21:12 50.10917 22.06990 1044 ft 141 kts 269°
2026-05-04 21:12 50.10948 22.05474 816 ft 137 kts 267°
2026-05-04 21:13 50.10968 22.04023 683 ft 129 kts 268°
2026-05-04 21:13 50.10977 22.03208 691 ft 22 kts 271°
2026-05-04 21:13 50.10979 22.03078 689 ft 11 kts 271°
2026-05-04 21:13 50.10981 22.02948 688 ft 14 kts 271°
2026-05-04 21:14 50.10990 22.02773 694 ft 12 kts 287°
2026-05-04 21:14 50.11019 22.02743 690 ft 5 kts 351°
2026-05-04 21:14 50.11053 22.02740 694 ft 6 kts 358°
2026-05-04 21:14 50.11107 22.02736 684 ft 12 kts 347°
2026-05-04 21:15 50.11122 22.02729 689 ft 9 kts 337°
2026-05-04 21:15 50.11151 22.02516 683 ft 25 kts 271°
2026-05-04 21:15 50.11189 22.02307 688 ft 18 kts 344°
2026-05-04 21:15 50.11308 22.02328 690 ft 17 kts 41°
2026-05-04 21:16 50.11323 22.02488 688 ft 13 kts 90°
2026-05-04 21:16 50.11333 22.02531 688 ft 0 kts 43°
2026-05-04 21:16 50.11336 22.02530 690 ft 0 kts
2026-05-04 21:16 50.11337 22.02530 690 ft 0 kts
2026-05-04 21:17 50.11395 22.02534 683 ft 7 kts
2026-05-04 21:18 50.11403 22.02535 686 ft 1 kts 360°
2026-05-04 21:18 50.11408 22.02534 688 ft 0 kts